Oakes, ND

12:25 AM CST on November 20, 2017 (GMT -0600)
Oakes

Weather History for K2D5 - October, 2012

Change the Weather History Date:

Thursday, October 11, 2012

  Actual Average (KP67) Record (KP67)
Temperature  
Mean Temperature 34 °F -  
Max Temperature 44 °F 63 °F 81 °F (1997)
Min Temperature 23 °F 37 °F 43 °F (1996)
Degree Days  
Heating Degree Days 31    
Moisture  
Dew Point 28 °F    
Average Humidity 76    
Maximum Humidity 100    
Minimum Humidity 37    
Precipitation  
Precipitation 0.00 in - - ()
Sea Level Pressure  
Sea Level Pressure 30.22 in    
Wind  
Wind Speed 12 mph (NNW)    
Max Wind Speed 18 mph    
Max Gust Speed 22 mph    
Visibility 10 miles    
Events      
Averages and records for this station are not official NWS values.
T = Trace of Precipitation, MM = Missing Value Source: NWS Daily Summary

Daily Weather History Graph

Daily Weather History Graph

Search for Another Location

Airport or City:

Trip Planner

Search our weather history database for the weather conditions in past years. The results will help you decide how hot, cold, wet, or windy it might be!

Date:

Astronomy

Oct. 11, 2012 Rise Set
Actual Time 7:44 AM CDT 6:52 PM CDT
Civil Twilight 7:14 AM CDT 7:22 PM CDT
Nautical Twilight 6:39 AM CDT 7:57 PM CDT
Astronomical Twilight 6:05 AM CDT 8:31 PM CDT
Moon 3:11 AM CDT (10/11) 4:40 PM CDT (10/11)
Length of Visible Light 12h 07m
Length of Day
11h 07m
Waning Crescent, 18% of the Moon is Illuminated
Oct 11
Waning Crescent
Oct 15
New
Oct 21
First Quarter
Oct 29
Full
Nov 6
Last Quarter

Hourly Weather History & Observations

Time (CDT) Temp. Windchill Dew Point Humidity Pressure Visibility Wind Dir Wind Speed Gust Speed Precip Events Conditions
12:15 AM 37.4 °F 28.9 °F 35.6 °F 93% 29.94 in 10.0 mi North 13.8 mph - N/A   Mostly Cloudy
12:35 AM 37.4 °F 27.8 °F 37.4 °F 100% 29.94 in 10.0 mi North 17.3 mph - N/A   Partly Cloudy
12:55 AM 35.6 °F 26.6 °F 35.6 °F 100% 29.95 in 10.0 mi North 13.8 mph 20.7 mph N/A   Partly Cloudy
1:15 AM 35.6 °F 25.9 °F 35.6 °F 100% 29.95 in 10.0 mi North 16.1 mph - N/A   Partly Cloudy
1:35 AM 35.6 °F 26.6 °F 35.6 °F 100% 29.96 in 10.0 mi North 13.8 mph - N/A   Scattered Clouds
1:55 AM 35.6 °F 26.6 °F 35.6 °F 100% 29.98 in 10.0 mi North 13.8 mph - N/A   Overcast
2:35 AM 35.6 °F 27.1 °F 35.6 °F 100% 30.00 in 10.0 mi North 12.7 mph - N/A   Overcast
2:55 AM 35.6 °F 27.1 °F 35.6 °F 100% 30.03 in 10.0 mi NNW 12.7 mph - N/A   Mostly Cloudy
3:15 AM 35.6 °F 25.9 °F 35.6 °F 100% 30.03 in 10.0 mi North 16.1 mph - N/A   Mostly Cloudy
3:35 AM 35.6 °F 25.9 °F 35.6 °F 100% 30.03 in 10.0 mi NNW 16.1 mph - N/A   Mostly Cloudy
3:55 AM 35.6 °F 27.5 °F 35.6 °F 100% 30.05 in 10.0 mi NNW 11.5 mph - N/A   Mostly Cloudy
4:15 AM 35.6 °F 28.6 °F 35.6 °F 100% 30.06 in 10.0 mi NW 9.2 mph - N/A   Mostly Cloudy
4:35 AM 35.6 °F 29.2 °F 35.6 °F 100% 30.07 in 10.0 mi NNW 8.1 mph - N/A   Partly Cloudy
4:55 AM 35.6 °F 28.0 °F 35.6 °F 100% 30.08 in 10.0 mi NW 10.4 mph - N/A   Partly Cloudy
5:15 AM 35.6 °F 27.5 °F 35.6 °F 100% 30.08 in 10.0 mi NNW 11.5 mph - N/A   Clear
5:35 AM 35.6 °F 27.5 °F 35.6 °F 100% 30.10 in 10.0 mi NW 11.5 mph - N/A   Clear
5:55 AM 35.6 °F 27.1 °F 35.6 °F 100% 30.10 in 10.0 mi NNW 12.7 mph - N/A   Clear
6:15 AM 35.6 °F 27.5 °F 35.6 °F 100% 30.12 in 10.0 mi NW 11.5 mph - N/A   Clear
6:35 AM 35.6 °F 28.6 °F 35.6 °F 100% 30.13 in 10.0 mi NW 9.2 mph - N/A   Clear
6:55 AM 33.8 °F 25.8 °F 33.8 °F 100% 30.14 in 10.0 mi NNW 10.4 mph - N/A   Clear
7:35 AM 33.8 °F 27.0 °F 33.8 °F 100% 30.17 in 10.0 mi NNW 8.1 mph - N/A   Clear
7:55 AM 33.8 °F 26.4 °F 33.8 °F 100% 30.18 in 10.0 mi NNW 9.2 mph - N/A   Clear
8:15 AM 33.8 °F 27.0 °F 33.8 °F 100% 30.19 in 10.0 mi NNW 8.1 mph - N/A   Clear
8:35 AM 35.6 °F 28.0 °F 35.6 °F 100% 30.21 in 10.0 mi NNW 10.4 mph - N/A   Clear
8:55 AM 35.6 °F 27.5 °F 35.6 °F 100% 30.22 in 10.0 mi NNW 11.5 mph - N/A   Clear
9:15 AM 35.6 °F 27.1 °F 33.8 °F 93% 30.23 in 10.0 mi NNW 12.7 mph - N/A   Clear
9:35 AM 35.6 °F 26.6 °F 32.0 °F 87% 30.24 in 10.0 mi NNW 13.8 mph - N/A   Clear
9:55 AM 35.6 °F 26.2 °F 32.0 °F 87% 30.25 in 10.0 mi North 15.0 mph - N/A   Clear
10:15 AM 35.6 °F 27.1 °F 32.0 °F 87% 30.26 in 10.0 mi North 12.7 mph - N/A   Clear
10:35 AM 37.4 °F 28.5 °F 32.0 °F 81% 30.27 in 10.0 mi NNW 15.0 mph 18.4 mph N/A   Clear
10:55 AM 37.4 °F 28.5 °F 30.2 °F 75% 30.27 in 10.0 mi NNW 15.0 mph - N/A   Clear
11:15 AM 39.2 °F 31.2 °F 30.2 °F 70% 30.28 in 10.0 mi North 13.8 mph - N/A   Clear
11:35 AM 39.2 °F 30.5 °F 28.4 °F 65% 30.27 in 10.0 mi NNW 16.1 mph 20.7 mph N/A   Clear
11:55 AM 39.2 °F 29.8 °F 26.6 °F 61% 30.28 in 10.0 mi NNW 18.4 mph 21.9 mph N/A   Clear
12:15 PM 41.0 °F 33.5 °F 24.8 °F 53% 30.30 in 10.0 mi North 13.8 mph - N/A   Mostly Cloudy
12:35 PM 39.2 °F 30.5 °F 23.0 °F 52% 30.31 in 10.0 mi NNW 16.1 mph - N/A   Mostly Cloudy
12:55 PM 39.2 °F 30.8 °F 23.0 °F 52% 30.31 in 10.0 mi NNW 15.0 mph 19.6 mph N/A   Mostly Cloudy
1:15 PM 41.0 °F 32.8 °F 24.8 °F 53% 30.31 in 10.0 mi NNW 16.1 mph 20.7 mph N/A   Mostly Cloudy
1:35 PM 39.2 °F 32.0 °F 24.8 °F 56% 30.31 in 10.0 mi North 11.5 mph 17.3 mph N/A   Mostly Cloudy
1:55 PM 41.0 °F 33.9 °F 24.8 °F 53% 30.31 in 10.0 mi NNW 12.7 mph - N/A   Scattered Clouds
2:15 PM 41.0 °F 34.3 °F 23.0 °F 49% 30.31 in 10.0 mi NNW 11.5 mph 17.3 mph N/A   Clear
2:35 PM 41.0 °F 35.2 °F 23.0 °F 49% 30.31 in 10.0 mi NW 9.2 mph 18.4 mph N/A   Clear
2:55 PM 41.0 °F 33.1 °F 21.2 °F 45% 30.31 in 10.0 mi North 15.0 mph - N/A   Clear
3:15 PM 42.8 °F 35.4 °F 21.2 °F 42% 30.31 in 10.0 mi NNW 15.0 mph 18.4 mph N/A   Clear
3:55 PM 42.8 °F 36.6 °F 21.2 °F 42% 30.32 in 10.0 mi NW 11.5 mph - N/A   Clear
4:15 PM 42.8 °F 36.6 °F 21.2 °F 42% 30.32 in 10.0 mi NNW 11.5 mph 17.3 mph N/A   Clear
4:35 PM 44.6 °F 38.8 °F 19.4 °F 37% 30.32 in 10.0 mi NW 11.5 mph 18.4 mph N/A   Clear
5:15 PM 44.6 °F 38.4 °F 19.4 °F 37% 30.32 in 10.0 mi NNW 12.7 mph - N/A   Clear
5:35 PM 41.0 °F 34.3 °F 19.4 °F 42% 30.32 in 10.0 mi NNW 11.5 mph - N/A   Clear
5:55 PM 41.0 °F 35.2 °F 19.4 °F 42% 30.33 in 10.0 mi NNW 9.2 mph - N/A   Clear
6:35 PM 37.4 °F 32.1 °F 19.4 °F 48% 30.34 in 10.0 mi NW 6.9 mph - N/A   Clear
6:55 PM 35.6 °F 29.9 °F 19.4 °F 52% 30.34 in 10.0 mi NNW 6.9 mph - N/A   Clear
7:15 PM 35.6 °F 30.7 °F 19.4 °F 52% 30.34 in 10.0 mi North 5.8 mph - N/A   Clear
7:35 PM 33.8 °F 30.8 °F 19.4 °F 56% 30.35 in 10.0 mi NNW 3.5 mph - N/A   Clear
8:15 PM 32.0 °F 25.6 °F 19.4 °F 60% 30.36 in 10.0 mi North 6.9 mph - N/A   Clear
8:35 PM 30.2 °F - 19.4 °F 64% 30.37 in 10.0 mi Calm Calm - N/A   Clear
8:55 PM 32.0 °F - 19.4 °F 60% 30.37 in 10.0 mi Calm Calm - N/A   Clear
9:15 PM 32.0 °F - 19.4 °F 60% 30.37 in 10.0 mi Calm Calm - N/A   Clear
9:55 PM 28.4 °F - 19.4 °F 69% 30.38 in 10.0 mi Calm Calm - N/A   Clear
10:15 PM 28.4 °F - 19.4 °F 69% 30.39 in 10.0 mi Calm Calm - N/A   Clear
10:55 PM 26.6 °F - 19.4 °F 74% 30.39 in 9.0 mi Calm Calm - N/A   Unknown
11:15 PM 24.8 °F - 19.4 °F 80% 30.39 in 9.0 mi Calm Calm - N/A   Unknown
11:35 PM 24.8 °F - 17.6 °F 74% 30.39 in 8.0 mi Calm Calm - N/A   Unknown
11:55 PM 23.0 °F - 17.6 °F 80% 30.39 in 8.0 mi Calm Calm - N/A   Unknown